"Pseudo-MPEC" for MQKA152

Created 2026 Aug 22 12:35:10 UT using Find_Orb

Click here for an explanation of pseudo-MPECs

 
 Astrometry: 
     MQKA152* C2026 08 14.82847202 14 52.951-00 18 14.14   ~8MAZ 22.22rWNEOCPO18
     MQKA152  C2026 08 14.89687502 14 59.930-00 17 36.04   ~8MAZ 22.69gWNEOCPO18

Station data:
(O18) WFST, Lenghu  (N38.607601 E93.895220)  China.  Observers K. Yan, Z. Q.
   Li, J. Z. Zhu, N. Jiang, Z. Y. Liu. Measurers B. Li, H. B. Zhao, Z. J. Xu,
   G. T. Zhaori. 2.5-m f/2.48 reflector + CCD.

Orbital elements:  MQKA152
   Perihelion 2026 Oct 12.041075 +/- 45.4 TT =  0:59:08.8 (JD 2461325.541075)
Epoch 2026 Aug 15.0 TT = JDT 2461267.5   Earth MOID: 0.0137      AutoNEOCP
M 299.836818490 +/- 53              (J2000 ecliptic)
n   1.036562148 +/- 0.763           Peri.  158.488143 +/- 70
a   0.966954009 +/- 0.475           Node   347.210428 +/- 39
e   0.93109691 +/- 0.252            Incl.   52.363894 +/- 48
P   0.951/347.295d         H 21.46  G  0.15   U 12.6  SR
q 0.066626113 +/- 0.533    Q 1.867281906 +/- 23.7
From 2 observations 2026 Aug. 14 (98.5 min); mean residual 0".00
Residuals in arcseconds: 
260814 O18  .00   .00     260814 O18  .00   .00     

Ephemerides (geocentric):
Date (UTC) HH   RA             Dec           delta  r     elong  mag " sig PA
---- --------  ------------   ------------  ------ ------ -----  --- --------
2026 08 22 13  02 32 48.832   +01 18 39.54  .34578 1.1861 112.2 21.4  62d  91
2026 08 22 14  02 32 56.750   +01 19 23.38  .34489 1.1856 112.2 21.4  62d  91
2026 08 22 15  02 33 04.703   +01 20 07.43  .34400 1.1851 112.2 21.4  62d  91
2026 08 22 16  02 33 12.690   +01 20 51.68  .34311 1.1845 112.2 21.4  62d  91
2026 08 22 17  02 33 20.712   +01 21 36.13  .34222 1.1840 112.2 21.4  62d  91
2026 08 22 18  02 33 28.769   +01 22 20.80  .34132 1.1834 112.2 21.4  62d  91
2026 08 22 19  02 33 36.861   +01 23 05.67  .34043 1.1829 112.2 21.4  62d  91
2026 08 22 20  02 33 44.990   +01 23 50.75  .33954 1.1824 112.2 21.4  63d  91
2026 08 22 21  02 33 53.154   +01 24 36.04  .33865 1.1818 112.2 21.4  63d  91
2026 08 22 22  02 34 01.355   +01 25 21.55  .33776 1.1813 112.2 21.4  63d  91
2026 08 22 23  02 34 09.592   +01 26 07.27  .33687 1.1808 112.2 21.4  63d  91
2026 08 23 00  02 34 17.867   +01 26 53.21  .33598 1.1802 112.2 21.4  63d  91
2026 08 23 01  02 34 26.179   +01 27 39.37  .33508 1.1797 112.3 21.4  63d  91
2026 08 23 02  02 34 34.528   +01 28 25.75  .33419 1.1791 112.3 21.4  63d  90
2026 08 23 03  02 34 42.915   +01 29 12.35  .33330 1.1786 112.3 21.4  63d  90
2026 08 23 04  02 34 51.341   +01 29 59.18  .33241 1.1780 112.3 21.4  63d  90
2026 08 23 05  02 34 59.805   +01 30 46.23  .33152 1.1775 112.3 21.4  64d  90
2026 08 23 06  02 35 08.308   +01 31 33.51  .33063 1.1770 112.3 21.3  64d  90
2026 08 23 07  02 35 16.850   +01 32 21.03  .32974 1.1764 112.3 21.3  64d  90
2026 08 23 08  02 35 25.432   +01 33 08.77  .32885 1.1759 112.3 21.3  64d  90
2026 08 23 09  02 35 34.054   +01 33 56.74  .32796 1.1753 112.3 21.3  64d  90
2026 08 23 10  02 35 42.716   +01 34 44.95  .32707 1.1748 112.3 21.3  64d  90
2026 08 23 11  02 35 51.418   +01 35 33.40  .32618 1.1742 112.3 21.3  64d  90
2026 08 23 12  02 36 00.161   +01 36 22.09  .32529 1.1737 112.3 21.3  64d  90
2026 08 23 13  02 36 08.946   +01 37 11.02  .32440 1.1732 112.3 21.3  64d  90
2026 08 23 14  02 36 17.772   +01 38 00.19  .32351 1.1726 112.3 21.3  64d  90
2026 08 23 15  02 36 26.640   +01 38 49.61  .32262 1.1721 112.3 21.3  64d  90
2026 08 23 16  02 36 35.550   +01 39 39.28  .32173 1.1715 112.3 21.3  64d  90
2026 08 23 17  02 36 44.503   +01 40 29.19  .32084 1.1710 112.3 21.3  64d  90
2026 08 23 18  02 36 53.499   +01 41 19.36  .31995 1.1704 112.3 21.3  64d  90
2026 08 23 19  02 37 02.539   +01 42 09.78  .31906 1.1699 112.3 21.3  64d  90
2026 08 23 20  02 37 11.622   +01 43 00.46  .31817 1.1693 112.3 21.3  64d  90
2026 08 23 21  02 37 20.750   +01 43 51.39  .31729 1.1688 112.3 21.3  65d  90
2026 08 23 22  02 37 29.922   +01 44 42.59  .31640 1.1682 112.3 21.3  65d  90
2026 08 23 23  02 37 39.139   +01 45 34.04  .31551 1.1677 112.3 21.2  65d  90
2026 08 24 00  02 37 48.401   +01 46 25.76  .31462 1.1671 112.3 21.2  65d  90
2026 08 24 01  02 37 57.709   +01 47 17.75  .31373 1.1666 112.3 21.2  65d  90
2026 08 24 02  02 38 07.064   +01 48 10.01  .31284 1.1661 112.3 21.2  65d  90
2026 08 24 03  02 38 16.464   +01 49 02.54  .31196 1.1655 112.2 21.2  65d  90
2026 08 24 04  02 38 25.912   +01 49 55.34  .31107 1.1650 112.2 21.2  65d  90
2026 08 24 05  02 38 35.407   +01 50 48.42  .31018 1.1644 112.2 21.2  65d  90
2026 08 24 06  02 38 44.950   +01 51 41.77  .30929 1.1639 112.2 21.2  65d  90
2026 08 24 07  02 38 54.541   +01 52 35.41  .30840 1.1633 112.2 21.2  65d  90
2026 08 24 08  02 39 04.181   +01 53 29.33  .30752 1.1628 112.2 21.2  65d  90
2026 08 24 09  02 39 13.870   +01 54 23.53  .30663 1.1622 112.2 21.2  65d  90
2026 08 24 10  02 39 23.609   +01 55 18.03  .30574 1.1616 112.2 21.2  65d  90
2026 08 24 11  02 39 33.397   +01 56 12.81  .30486 1.1611 112.2 21.2  65d  90
2026 08 24 12  02 39 43.236   +01 57 07.89  .30397 1.1605 112.2 21.2  65d  90